sat.trackr.live / text

‹ back to catalog

HJS-9A

NORAD 68831 · 2026-091A

PAYLOAD ACTIVE UNKNOWN

§ Identity

Operator
Country
PRC
Launch date
2026-04-24
Launch site
XICLF
Launch vehicle
Mass (kg)
RCS (m²)

External: N2YO · Heavens-Above · Gunter

§ Orbital elements

Epoch: 2026-05-22T00:21:42.759072Z

Period
94.78 min
Inclination
55.0019°
Eccentricity
0.0010737
Mean motion
15.19338069 rev/d
Perigee alt
500.4 km
Apogee alt
515.2 km
Semi-major
6,886.0 km
B*
7.3937e-4
RAAN
136.0532°
Arg perigee
0.3490°
Mean anomaly
359.7535°
Rev number
422

§ Raw data

HJS-9A1 68831U 26091A   26142.01507823  .00015537  00000+0  73937-3 0  99972 68831  55.0019 136.0532 0010737   0.3490 359.7535 15.19338069  4222

JSON: /api/v1/satellites/68831 · /tle

For live sub-satellite position, see the globe view (requires WebGL).

§ Visibility from observer

Set your observer location to see the next 7 days of passes ≥ 10°. The values pass through the URL so the page stays shareable.

No JS? Fill the form by hand. The geolocation button needs JavaScript.